owner,sensor,date,latitude,longitude,vertical_datum,direction_of_sea_water_velocity,sea_water_speed,upward_sea_water_velocity,qcFlag 
TABS,ioos:station:wmo:42050:1,2019-03-01T03:00:00Z,28.8425,-94.2433,-2.0,262.4,24.31,-99999.0,'1111122,1111122,1199999999' 
TABS,ioos:station:wmo:42050:1,2019-03-01T04:00:00Z,28.8425,-94.2433,-2.0,268.9,22.49,-99999.0,'1111122,1111122,1199999999' 
TABS,ioos:station:wmo:42050:1,2019-03-01T06:00:00Z,28.8425,-94.2433,-2.0,245.6,42.41,-99999.0,'1111122,1111122,1199999999' 
TABS,ioos:station:wmo:42050:1,2019-03-01T08:00:00Z,28.8425,-94.2433,-2.0,238.4,51.35,-99999.0,'1111122,1111122,1199999999' 
TABS,ioos:station:wmo:42050:1,2019-03-01T10:00:00Z,28.8425,-94.2433,-2.0,257.7,62.67,-99999.0,'1111122,1111122,1199999999' 
TABS,ioos:station:wmo:42050:1,2019-03-01T11:00:00Z,28.8425,-94.2433,-2.0,265.1,64.27,-99999.0,'1111122,1111122,1199999999' 
TABS,ioos:station:wmo:42050:1,2019-03-01T12:00:00Z,28.8425,-94.2433,-2.0,270.7,62.94,-99999.0,'1111122,1111122,1199999999' 
TABS,ioos:station:wmo:42050:1,2019-03-01T13:00:00Z,28.8425,-94.2433,-2.0,267.3,60.78,-99999.0,'1111122,1111122,1199999999' 
TABS,ioos:station:wmo:42050:1,2019-03-01T14:00:00Z,28.8425,-94.2433,-2.0,278.8,57.06,-99999.0,'1111122,1111122,1199999999' 
TABS,ioos:station:wmo:42050:1,2019-03-01T16:00:00Z,28.8425,-94.2433,-2.0,281.7,58.97,-99999.0,'1111122,1111122,1199999999' 
TABS,ioos:station:wmo:42050:1,2019-03-01T20:00:00Z,28.8425,-94.2433,-2.0,261.7,49.9,-99999.0,'1111122,1111122,1199999999' 
TABS,ioos:station:wmo:42050:1,2019-03-01T22:00:00Z,28.8425,-94.2433,-2.0,253.2,44.17,-99999.0,'1111122,1111122,1199999999' 
TABS,ioos:station:wmo:42050:1,2019-03-02T00:00:00Z,28.8425,-94.2433,-2.0,272.2,30.95,-99999.0,'1111122,1111122,1199999999' 
TABS,ioos:station:wmo:42050:1,2019-03-02T01:00:00Z,28.8425,-94.2433,-2.0,262.9,24.92,-99999.0,'1111122,1111122,1199999999' 
TABS,ioos:station:wmo:42050:1,2019-03-02T01:30:00Z,28.8425,-94.2433,-2.0,258.4,26.11,-99999.0,'1111122,1111122,1199999999' 
TABS,ioos:station:wmo:42050:1,2019-03-02T09:00:00Z,28.8425,-94.2433,-2.0,189.9,60.29,-99999.0,'1111122,1111122,1199999999' 
TABS,ioos:station:wmo:42050:1,2019-03-02T10:00:00Z,28.8425,-94.2433,-2.0,195.8,59.24,-99999.0,'1111122,1111122,1199999999' 
TABS,ioos:station:wmo:42050:1,2019-03-02T11:00:00Z,28.8425,-94.2433,-2.0,195.6,58.05,-99999.0,'1111122,1111122,1199999999' 
TABS,ioos:station:wmo:42050:1,2019-03-02T12:00:00Z,28.8425,-94.2433,-2.0,191.3,56.13,-99999.0,'1111122,1111122,1199999999' 
TABS,ioos:station:wmo:42050:1,2019-03-02T15:00:00Z,28.8425,-94.2433,-2.0,200.2,45.95,-99999.0,'1111122,1111122,1199999999' 
TABS,ioos:station:wmo:42050:1,2019-03-02T16:00:00Z,28.8425,-94.2433,-2.0,212.9,48.04,-99999.0,'1111122,1111122,1199999999' 
TABS,ioos:station:wmo:42050:1,2019-03-02T17:00:00Z,28.8425,-94.2433,-2.0,245.1,46.58,-99999.0,'1111122,1111122,1199999999' 
TABS,ioos:station:wmo:42050:1,2019-03-02T18:00:00Z,28.8425,-94.2433,-2.0,238.1,39.33,-99999.0,'1111122,1111122,1199999999' 
TABS,ioos:station:wmo:42050:1,2019-03-02T19:00:00Z,28.8425,-94.2433,-2.0,244.8,36.14,-99999.0,'1111122,1111122,1199999999' 
TABS,ioos:station:wmo:42050:1,2019-03-02T20:00:00Z,28.8425,-94.2433,-2.0,244.5,34.95,-99999.0,'1111122,1111122,1199999999' 
TABS,ioos:station:wmo:42050:1,2019-03-02T21:00:00Z,28.8425,-94.2433,-2.0,247.9,30.06,-99999.0,'1111122,1111122,1199999999' 
TABS,ioos:station:wmo:42050:1,2019-03-02T22:00:00Z,28.8425,-94.2433,-2.0,227.1,34.88,-99999.0,'1111122,1111122,1199999999' 
TABS,ioos:station:wmo:42050:1,2019-03-02T23:00:00Z,28.8425,-94.2433,-2.0,234.5,34.25,-99999.0,'1111122,1111122,1199999999' 
TABS,ioos:station:wmo:42050:1,2019-03-03T02:00:00Z,28.8425,-94.2433,-2.0,275.4,17.97,-99999.0,'1111122,1111122,1199999999' 
TABS,ioos:station:wmo:42050:1,2019-03-03T03:00:00Z,28.8425,-94.2433,-2.0,276.6,15.3,-99999.0,'1111122,1111122,1199999999' 
TABS,ioos:station:wmo:42050:1,2019-03-03T05:00:00Z,28.8425,-94.2433,-2.0,271.5,17.85,-99999.0,'1111122,1111122,1199999999' 
TABS,ioos:station:wmo:42050:1,2019-03-03T08:00:00Z,28.8425,-94.2433,-2.0,249.7,24.1,-99999.0,'1111122,1111122,1199999999' 
TABS,ioos:station:wmo:42050:1,2019-03-03T08:30:00Z,28.8425,-94.2433,-2.0,252.0,25.52,-99999.0,'1111122,1111122,1199999999' 
TABS,ioos:station:wmo:42050:1,2019-03-03T14:00:00Z,28.8425,-94.2433,-2.0,262.5,23.23,-99999.0,'1111122,1111122,1199999999' 
TABS,ioos:station:wmo:42050:1,2019-03-03T20:00:00Z,28.8425,-94.2433,-2.0,223.1,23.05,-99999.0,'1111122,1111122,1199999999' 
TABS,ioos:station:wmo:42050:1,2019-03-03T21:00:00Z,28.8425,-94.2433,-2.0,221.2,23.92,-99999.0,'1111122,1111122,1199999999' 
TABS,ioos:station:wmo:42050:1,2019-03-03T22:00:00Z,28.8425,-94.2433,-2.0,205.6,36.26,-99999.0,'1111122,1111122,1199999999' 
TABS,ioos:station:wmo:42050:1,2019-03-04T00:00:00Z,28.8425,-94.2433,-2.0,207.5,32.51,-99999.0,'1111122,1111122,1199999999' 
TABS,ioos:station:wmo:42050:1,2019-03-04T01:00:00Z,28.8425,-94.2433,-2.0,216.8,28.62,-99999.0,'1111122,1111122,1199999999' 
TABS,ioos:station:wmo:42050:1,2019-03-04T02:00:00Z,28.8425,-94.2433,-2.0,222.2,25.95,-99999.0,'1111122,1111122,1199999999' 
TABS,ioos:station:wmo:42050:1,2019-03-04T03:00:00Z,28.8425,-94.2433,-2.0,233.3,23.01,-99999.0,'1111122,1111122,1199999999' 
TABS,ioos:station:wmo:42050:1,2019-03-04T04:00:00Z,28.8425,-94.2433,-2.0,238.0,24.17,-99999.0,'1111122,1111122,1199999999' 
TABS,ioos:station:wmo:42050:1,2019-03-04T05:00:00Z,28.8425,-94.2433,-2.0,247.0,19.81,-99999.0,'1111122,1111122,1199999999' 
TABS,ioos:station:wmo:42050:1,2019-03-04T07:00:00Z,28.8425,-94.2433,-2.0,251.7,24.81,-99999.0,'1111122,1111122,1199999999' 
TABS,ioos:station:wmo:42050:1,2019-03-04T08:00:00Z,28.8425,-94.2433,-2.0,250.1,29.21,-99999.0,'1111122,1111122,1199999999' 
TABS,ioos:station:wmo:42050:1,2019-03-04T09:00:00Z,28.8425,-94.2433,-2.0,240.6,30.3,-99999.0,'1111122,1111122,1199999999' 
TABS,ioos:station:wmo:42050:1,2019-03-04T10:00:00Z,28.8425,-94.2433,-2.0,238.1,32.85,-99999.0,'1111122,1111122,1199999999' 
TABS,ioos:station:wmo:42050:1,2019-03-04T12:00:00Z,28.8425,-94.2433,-2.0,247.5,33.74,-99999.0,'1111122,1111122,1199999999' 
TABS,ioos:station:wmo:42050:1,2019-03-04T13:00:00Z,28.8425,-94.2433,-2.0,249.6,36.99,-99999.0,'1111122,1111122,1199999999' 
TABS,ioos:station:wmo:42050:1,2019-03-04T15:00:00Z,28.8425,-94.2433,-2.0,257.4,31.7,-99999.0,'1111122,1111122,1199999999' 
TABS,ioos:station:wmo:42050:1,2019-03-04T18:00:00Z,28.8425,-94.2433,-2.0,272.4,23.68,-99999.0,'1111122,1111122,1199999999' 
TABS,ioos:station:wmo:42050:1,2019-03-04T19:00:00Z,28.8425,-94.2433,-2.0,271.8,21.88,-99999.0,'1111122,1111122,1199999999' 
TABS,ioos:station:wmo:42050:1,2019-03-04T20:00:00Z,28.8425,-94.2433,-2.0,262.0,22.03,-99999.0,'1111122,1111122,1199999999' 
TABS,ioos:station:wmo:42050:1,2019-03-05T00:00:00Z,28.8425,-94.2433,-2.0,233.3,20.79,-99999.0,'1111122,1111122,1199999999' 
TABS,ioos:station:wmo:42050:1,2019-03-05T01:00:00Z,28.8425,-94.2433,-2.0,228.1,22.59,-99999.0,'1111122,1111122,1199999999' 
TABS,ioos:station:wmo:42050:1,2019-03-05T02:00:00Z,28.8425,-94.2433,-2.0,230.3,24.47,-99999.0,'1111122,1111122,1199999999' 
TABS,ioos:station:wmo:42050:1,2019-03-05T07:00:00Z,28.8425,-94.2433,-2.0,236.0,19.64,-99999.0,'1111122,1111122,1199999999' 
TABS,ioos:station:wmo:42050:1,2019-03-05T11:00:00Z,28.8425,-94.2433,-2.0,226.9,16.63,-99999.0,'1111122,1111122,1199999999' 
TABS,ioos:station:wmo:42050:1,2019-03-05T12:00:00Z,28.8425,-94.2433,-2.0,231.0,21.31,-99999.0,'1111122,1111122,1199999999' 
TABS,ioos:station:wmo:42050:1,2019-03-05T14:00:00Z,28.8425,-94.2433,-2.0,244.0,17.02,-99999.0,'1111122,1111122,1199999999' 
TABS,ioos:station:wmo:42050:1,2019-03-05T15:00:00Z,28.8425,-94.2433,-2.0,271.2,12.42,-99999.0,'1111122,1111122,1199999999' 
TABS,ioos:station:wmo:42050:1,2019-03-05T18:00:00Z,28.8425,-94.2433,-2.0,272.5,23.55,-99999.0,'1111122,1111122,1199999999' 
TABS,ioos:station:wmo:42050:1,2019-03-05T22:00:00Z,28.8425,-94.2433,-2.0,236.9,22.87,-99999.0,'1111122,1111122,1199999999' 
TABS,ioos:station:wmo:42050:1,2019-03-06T00:00:00Z,28.8425,-94.2433,-2.0,231.1,22.33,-99999.0,'1111122,1111122,1199999999' 
TABS,ioos:station:wmo:42050:1,2019-03-06T01:00:00Z,28.8425,-94.2433,-2.0,239.5,22.3,-99999.0,'1111122,1111122,1199999999' 
TABS,ioos:station:wmo:42050:1,2019-03-06T03:00:00Z,28.8425,-94.2433,-2.0,227.9,22.78,-99999.0,'1111122,1111122,1199999999' 
TABS,ioos:station:wmo:42050:1,2019-03-06T09:00:00Z,28.8425,-94.2433,-2.0,184.8,3.73,-99999.0,'1111122,1111122,1199999999' 
TABS,ioos:station:wmo:42050:1,2019-03-06T10:00:00Z,28.8425,-94.2433,-2.0,238.9,6.13,-99999.0,'1111122,1111122,1199999999' 
TABS,ioos:station:wmo:42050:1,2019-03-06T11:00:00Z,28.8425,-94.2433,-2.0,237.2,7.24,-99999.0,'1111122,1111122,1199999999' 
TABS,ioos:station:wmo:42050:1,2019-03-06T11:30:00Z,28.8425,-94.2433,-2.0,231.4,9.32,-99999.0,'1111122,1111122,1199999999' 
TABS,ioos:station:wmo:42050:1,2019-03-06T13:00:00Z,28.8425,-94.2433,-2.0,250.5,13.15,-99999.0,'1111122,1111122,1199999999' 
TABS,ioos:station:wmo:42050:1,2019-03-06T15:00:00Z,28.8425,-94.2433,-2.0,272.2,16.74,-99999.0,'1111122,1111122,1199999999' 
TABS,ioos:station:wmo:42050:1,2019-03-06T16:00:00Z,28.8425,-94.2433,-2.0,285.2,18.15,-99999.0,'1111122,1111122,1199999999' 
TABS,ioos:station:wmo:42050:1,2019-03-06T17:00:00Z,28.8425,-94.2433,-2.0,287.2,20.64,-99999.0,'1111122,1111122,1199999999' 
TABS,ioos:station:wmo:42050:1,2019-03-06T20:00:00Z,28.8425,-94.2433,-2.0,307.6,22.84,-99999.0,'1111122,1111122,1199999999' 
TABS,ioos:station:wmo:42050:1,2019-03-06T21:00:00Z,28.8425,-94.2433,-2.0,302.7,21.87,-99999.0,'1111122,1111122,1199999999' 
TABS,ioos:station:wmo:42050:1,2019-03-06T22:00:00Z,28.8425,-94.2433,-2.0,294.2,21.97,-99999.0,'1111122,1111122,1199999999' 
TABS,ioos:station:wmo:42050:1,2019-03-07T01:00:00Z,28.8425,-94.2433,-2.0,256.9,18.29,-99999.0,'1111122,1111122,1199999999' 
TABS,ioos:station:wmo:42050:1,2019-03-07T03:00:00Z,28.8425,-94.2433,-2.0,264.2,18.55,-99999.0,'1111122,1111122,1199999999' 
TABS,ioos:station:wmo:42050:1,2019-03-07T05:00:00Z,28.8425,-94.2433,-2.0,316.1,18.09,-99999.0,'1111122,1111122,1199999999' 
TABS,ioos:station:wmo:42050:1,2019-03-07T07:00:00Z,28.8425,-94.2433,-2.0,327.9,18.5,-99999.0,'1111122,1111122,1199999999' 
TABS,ioos:station:wmo:42050:1,2019-03-07T08:00:00Z,28.8425,-94.2433,-2.0,320.5,16.32,-99999.0,'1111122,1111122,1199999999' 
TABS,ioos:station:wmo:42050:1,2019-03-07T09:00:00Z,28.8425,-94.2433,-2.0,298.6,13.94,-99999.0,'1111122,1111122,1199999999' 
TABS,ioos:station:wmo:42050:1,2019-03-07T10:00:00Z,28.8425,-94.2433,-2.0,299.5,12.09,-99999.0,'1111122,1111122,1199999999' 
TABS,ioos:station:wmo:42050:1,2019-03-07T14:00:00Z,28.8425,-94.2433,-2.0,276.5,11.7,-99999.0,'1111122,1111122,1199999999' 
TABS,ioos:station:wmo:42050:1,2019-03-07T17:00:00Z,28.8425,-94.2433,-2.0,317.6,19.96,-99999.0,'1111122,1111122,1199999999' 
TABS,ioos:station:wmo:42050:1,2019-03-07T19:00:00Z,28.8425,-94.2433,-2.0,328.4,22.07,-99999.0,'1111122,1111122,1199999999' 
TABS,ioos:station:wmo:42050:1,2019-03-07T22:00:00Z,28.8425,-94.2433,-2.0,323.8,15.66,-99999.0,'1111122,1111122,1199999999' 
TABS,ioos:station:wmo:42050:1,2019-03-08T00:00:00Z,28.8425,-94.2433,-2.0,290.2,5.41,-99999.0,'1111122,1111122,1199999999' 
TABS,ioos:station:wmo:42050:1,2019-03-08T02:00:00Z,28.8425,-94.2433,-2.0,267.2,6.4,-99999.0,'1111122,1111122,1199999999' 
TABS,ioos:station:wmo:42050:1,2019-03-08T05:00:00Z,28.8425,-94.2433,-2.0,290.3,9.47,-99999.0,'1111122,1111122,1199999999' 
TABS,ioos:station:wmo:42050:1,2019-03-08T06:00:00Z,28.8425,-94.2433,-2.0,313.5,10.4,-99999.0,'1111122,1111122,1199999999' 
TABS,ioos:station:wmo:42050:1,2019-03-08T11:00:00Z,28.8425,-94.2433,-2.0,336.1,6.68,-99999.0,'1111122,1111122,1199999999' 
TABS,ioos:station:wmo:42050:1,2019-03-08T12:00:00Z,28.8425,-94.2433,-2.0,267.1,2.15,-99999.0,'1111122,1111122,1199999999' 
TABS,ioos:station:wmo:42050:1,2019-03-08T13:00:00Z,28.8425,-94.2433,-2.0,255.7,1.37,-99999.0,'1111122,1111122,1199999999' 
TABS,ioos:station:wmo:42050:1,2019-03-08T16:00:00Z,28.8425,-94.2433,-2.0,354.2,9.75,-99999.0,'1111122,1111122,1199999999' 
TABS,ioos:station:wmo:42050:1,2019-03-08T18:00:00Z,28.8425,-94.2433,-2.0,6.1,20.48,-99999.0,'1111122,1111122,1199999999' 
TABS,ioos:station:wmo:42050:1,2019-03-08T19:00:00Z,28.8425,-94.2433,-2.0,7.1,25.29,-99999.0,'1111122,1111122,1199999999' 
TABS,ioos:station:wmo:42050:1,2019-03-08T22:00:00Z,28.8425,-94.2433,-2.0,12.4,15.88,-99999.0,'1111122,1111122,1199999999' 
TABS,ioos:station:wmo:42050:1,2019-03-09T00:00:00Z,28.8425,-94.2433,-2.0,14.8,8.87,-99999.0,'1111122,1111122,1199999999' 
TABS,ioos:station:wmo:42050:1,2019-03-09T01:00:00Z,28.8425,-94.2433,-2.0,30.4,6.46,-99999.0,'1111122,1111122,1199999999' 
TABS,ioos:station:wmo:42050:1,2019-03-09T02:00:00Z,28.8425,-94.2433,-2.0,36.0,2.91,-99999.0,'1111122,1111122,1199999999' 
TABS,ioos:station:wmo:42050:1,2019-03-09T03:00:00Z,28.8425,-94.2433,-2.0,348.5,4.15,-99999.0,'1111122,1111122,1199999999' 
TABS,ioos:station:wmo:42050:1,2019-03-09T06:00:00Z,28.8425,-94.2433,-2.0,348.0,7.62,-99999.0,'1111122,1111122,1199999999' 
TABS,ioos:station:wmo:42050:1,2019-03-09T07:00:00Z,28.8425,-94.2433,-2.0,336.1,10.37,-99999.0,'1111122,1111122,1199999999' 
TABS,ioos:station:wmo:42050:1,2019-03-09T09:00:00Z,28.8425,-94.2433,-2.0,326.8,10.35,-99999.0,'1111122,1111122,1199999999' 
TABS,ioos:station:wmo:42050:1,2019-03-09T10:00:00Z,28.8425,-94.2433,-2.0,300.5,4.94,-99999.0,'1111122,1111122,1199999999' 
TABS,ioos:station:wmo:42050:1,2019-03-09T14:00:00Z,28.8425,-94.2433,-2.0,216.8,11.46,-99999.0,'1111122,1111122,1199999999' 
TABS,ioos:station:wmo:42050:1,2019-03-09T19:00:00Z,28.8425,-94.2433,-2.0,225.7,9.2,-99999.0,'1111122,1111122,1199999999' 
TABS,ioos:station:wmo:42050:1,2019-03-09T20:00:00Z,28.8425,-94.2433,-2.0,225.3,10.46,-99999.0,'1111122,1111122,1199999999' 
TABS,ioos:station:wmo:42050:1,2019-03-10T02:00:00Z,28.8425,-94.2433,-2.0,227.9,23.05,-99999.0,'1111122,1111122,1199999999' 
TABS,ioos:station:wmo:42050:1,2019-03-10T09:00:00Z,28.8425,-94.2433,-2.0,264.0,31.88,-99999.0,'1111122,1111122,1199999999' 
TABS,ioos:station:wmo:42050:1,2019-03-10T11:00:00Z,28.8425,-94.2433,-2.0,264.9,37.23,-99999.0,'1111122,1111122,1199999999' 
TABS,ioos:station:wmo:42050:1,2019-03-10T12:00:00Z,28.8425,-94.2433,-2.0,260.9,40.06,-99999.0,'1111122,1111122,1199999999' 
TABS,ioos:station:wmo:42050:1,2019-03-10T14:00:00Z,28.8425,-94.2433,-2.0,245.7,47.73,-99999.0,'1111122,1111122,1199999999' 
TABS,ioos:station:wmo:42050:1,2019-03-10T15:00:00Z,28.8425,-94.2433,-2.0,251.8,44.66,-99999.0,'1111122,1111122,1199999999' 
TABS,ioos:station:wmo:42050:1,2019-03-10T19:00:00Z,28.8425,-94.2433,-2.0,250.6,46.57,-99999.0,'1111122,1111122,1199999999' 
TABS,ioos:station:wmo:42050:1,2019-03-10T21:00:00Z,28.8425,-94.2433,-2.0,256.1,45.84,-99999.0,'1111122,1111122,1199999999' 
TABS,ioos:station:wmo:42050:1,2019-03-11T04:00:00Z,28.8425,-94.2433,-2.0,249.7,41.52,-99999.0,'1111122,1111122,1199999999' 
TABS,ioos:station:wmo:42050:1,2019-03-11T05:00:00Z,28.8425,-94.2433,-2.0,257.3,40.14,-99999.0,'1111122,1111122,1199999999' 
TABS,ioos:station:wmo:42050:1,2019-03-11T09:00:00Z,28.8425,-94.2433,-2.0,291.2,23.24,-99999.0,'1111122,1111122,1199999999' 
TABS,ioos:station:wmo:42050:1,2019-03-11T13:00:00Z,28.8425,-94.2433,-2.0,248.0,11.53,-99999.0,'1111122,1111122,1199999999' 
TABS,ioos:station:wmo:42050:1,2019-03-11T15:00:00Z,28.8425,-94.2433,-2.0,200.3,18.23,-99999.0,'1111122,1111122,1199999999' 
TABS,ioos:station:wmo:42050:1,2019-03-11T22:00:00Z,28.8425,-94.2433,-2.0,235.9,22.46,-99999.0,'1111122,1111122,1199999999' 
TABS,ioos:station:wmo:42050:1,2019-03-11T23:00:00Z,28.8425,-94.2433,-2.0,235.7,24.19,-99999.0,'1111122,1111122,1199999999' 
TABS,ioos:station:wmo:42050:1,2019-03-12T00:00:00Z,28.8425,-94.2433,-2.0,240.6,28.76,-99999.0,'1111122,1111122,1199999999' 
TABS,ioos:station:wmo:42050:1,2019-03-12T01:00:00Z,28.8425,-94.2433,-2.0,247.6,30.99,-99999.0,'1111122,1111122,1199999999' 
TABS,ioos:station:wmo:42050:1,2019-03-12T02:00:00Z,28.8425,-94.2433,-2.0,248.0,32.55,-99999.0,'1111122,1111122,1199999999' 
TABS,ioos:station:wmo:42050:1,2019-03-12T03:00:00Z,28.8425,-94.2433,-2.0,255.9,30.56,-99999.0,'1111122,1111122,1199999999' 
TABS,ioos:station:wmo:42050:1,2019-03-12T04:00:00Z,28.8425,-94.2433,-2.0,263.6,33.49,-99999.0,'1111122,1111122,1199999999' 
TABS,ioos:station:wmo:42050:1,2019-03-12T05:00:00Z,28.8425,-94.2433,-2.0,263.6,27.77,-99999.0,'1111122,1111122,1199999999' 
TABS,ioos:station:wmo:42050:1,2019-03-12T06:00:00Z,28.8425,-94.2433,-2.0,278.9,25.65,-99999.0,'1111122,1111122,1199999999' 
TABS,ioos:station:wmo:42050:1,2019-03-12T08:00:00Z,28.8425,-94.2433,-2.0,307.4,23.13,-99999.0,'1111122,1111122,1199999999' 
TABS,ioos:station:wmo:42050:1,2019-03-12T09:00:00Z,28.8425,-94.2433,-2.0,327.3,20.24,-99999.0,'1111122,1111122,1199999999' 
TABS,ioos:station:wmo:42050:1,2019-03-12T10:00:00Z,28.8425,-94.2433,-2.0,344.7,19.51,-99999.0,'1111122,1111122,1199999999' 
TABS,ioos:station:wmo:42050:1,2019-03-12T11:00:00Z,28.8425,-94.2433,-2.0,359.5,16.02,-99999.0,'1111122,1111122,1199999999' 
TABS,ioos:station:wmo:42050:1,2019-03-12T14:00:00Z,28.8425,-94.2433,-2.0,93.4,3.17,-99999.0,'1111122,1111122,1199999999' 
TABS,ioos:station:wmo:42050:1,2019-03-12T15:00:00Z,28.8425,-94.2433,-2.0,97.0,4.53,-99999.0,'1111122,1111122,1199999999' 
TABS,ioos:station:wmo:42050:1,2019-03-12T19:00:00Z,28.8425,-94.2433,-2.0,218.0,8.55,-99999.0,'1111122,1111122,1199999999' 
TABS,ioos:station:wmo:42050:1,2019-03-12T20:00:00Z,28.8425,-94.2433,-2.0,234.5,11.23,-99999.0,'1111122,1111122,1199999999' 
TABS,ioos:station:wmo:42050:1,2019-03-13T00:00:00Z,28.8425,-94.2433,-2.0,302.1,24.19,-99999.0,'1111122,1111122,1199999999' 
TABS,ioos:station:wmo:42050:1,2019-03-13T04:00:00Z,28.8425,-94.2433,-2.0,286.4,28.22,-99999.0,'1111122,1111122,1199999999' 
TABS,ioos:station:wmo:42050:1,2019-03-13T05:00:00Z,28.8425,-94.2433,-2.0,283.4,28.0,-99999.0,'1111122,1111122,1199999999' 
TABS,ioos:station:wmo:42050:1,2019-03-13T13:00:00Z,28.8425,-94.2433,-2.0,297.9,18.53,-99999.0,'1111122,1111122,1199999999' 
TABS,ioos:station:wmo:42050:1,2019-03-13T14:00:00Z,28.8425,-94.2433,-2.0,283.3,17.42,-99999.0,'1111122,1111122,1199999999' 
TABS,ioos:station:wmo:42050:1,2019-03-13T16:00:00Z,28.8425,-94.2433,-2.0,278.9,15.63,-99999.0,'1111122,1111122,1199999999' 
TABS,ioos:station:wmo:42050:1,2019-03-13T19:00:00Z,28.8425,-94.2433,-2.0,245.6,17.82,-99999.0,'1111122,1111122,1199999999' 
TABS,ioos:station:wmo:42050:1,2019-03-14T01:00:00Z,28.8425,-94.2433,-2.0,260.3,9.09,-99999.0,'1111122,1111122,1199999999' 
TABS,ioos:station:wmo:42050:1,2019-03-14T13:00:00Z,28.8425,-94.2433,-2.0,286.6,22.47,-99999.0,'1111122,1111122,1199999999' 
TABS,ioos:station:wmo:42050:1,2019-03-14T22:00:00Z,28.8425,-94.2433,-2.0,240.0,29.21,-99999.0,'1111122,1111122,1199999999' 
TABS,ioos:station:wmo:42050:1,2019-03-15T00:00:00Z,28.8425,-94.2433,-2.0,238.4,26.76,-99999.0,'1111122,1111122,1199999999' 
TABS,ioos:station:wmo:42050:1,2019-03-15T01:00:00Z,28.8425,-94.2433,-2.0,239.0,27.47,-99999.0,'1111122,1111122,1199999999' 
TABS,ioos:station:wmo:42050:1,2019-03-15T03:00:00Z,28.8425,-94.2433,-2.0,234.9,23.91,-99999.0,'1111122,1111122,1199999999' 
TABS,ioos:station:wmo:42050:1,2019-03-15T05:00:00Z,28.8425,-94.2433,-2.0,238.9,31.33,-99999.0,'1111122,1111122,1199999999' 
TABS,ioos:station:wmo:42050:1,2019-03-15T07:00:00Z,28.8425,-94.2433,-2.0,235.1,37.33,-99999.0,'1111122,1111122,1199999999' 
TABS,ioos:station:wmo:42050:1,2019-03-15T14:00:00Z,28.8425,-94.2433,-2.0,260.5,39.34,-99999.0,'1111122,1111122,1199999999' 
TABS,ioos:station:wmo:42050:1,2019-03-15T15:00:00Z,28.8425,-94.2433,-2.0,264.4,40.24,-99999.0,'1111122,1111122,1199999999' 
TABS,ioos:station:wmo:42050:1,2019-03-15T17:00:00Z,28.8425,-94.2433,-2.0,271.1,49.72,-99999.0,'1111122,1111122,1199999999' 
TABS,ioos:station:wmo:42050:1,2019-03-16T02:00:00Z,28.8425,-94.2433,-2.0,265.2,32.18,-99999.0,'1111122,1111122,1199999999' 
TABS,ioos:station:wmo:42050:1,2019-03-16T04:00:00Z,28.8425,-94.2433,-2.0,274.1,44.37,-99999.0,'1111122,1111122,1199999999' 
TABS,ioos:station:wmo:42050:1,2019-03-16T06:00:00Z,28.8425,-94.2433,-2.0,272.6,38.23,-99999.0,'1111122,1111122,1199999999' 
TABS,ioos:station:wmo:42050:1,2019-03-16T09:00:00Z,28.8425,-94.2433,-2.0,268.8,49.77,-99999.0,'1111122,1111122,1199999999' 
TABS,ioos:station:wmo:42050:1,2019-03-16T12:00:00Z,28.8425,-94.2433,-2.0,286.5,55.04,-99999.0,'1111122,1111122,1199999999' 
TABS,ioos:station:wmo:42050:1,2019-03-16T14:00:00Z,28.8425,-94.2433,-2.0,298.1,56.49,-99999.0,'1111122,1111122,1199999999' 
TABS,ioos:station:wmo:42050:1,2019-03-16T20:00:00Z,28.8425,-94.2433,-2.0,275.1,55.8,-99999.0,'1111122,1111122,1199999999' 
TABS,ioos:station:wmo:42050:1,2019-03-16T21:00:00Z,28.8425,-94.2433,-2.0,271.5,52.85,-99999.0,'1111122,1111122,1199999999' 
TABS,ioos:station:wmo:42050:1,2019-03-16T22:00:00Z,28.8425,-94.2433,-2.0,264.3,46.1,-99999.0,'1111122,1111122,1199999999' 
TABS,ioos:station:wmo:42050:1,2019-03-16T23:00:00Z,28.8425,-94.2433,-2.0,269.2,51.25,-99999.0,'1111122,1111122,1199999999' 
TABS,ioos:station:wmo:42050:1,2019-03-17T00:00:00Z,28.8425,-94.2433,-2.0,271.8,56.79,-99999.0,'1111122,1111122,1199999999' 
TABS,ioos:station:wmo:42050:1,2019-03-17T01:00:00Z,28.8425,-94.2433,-2.0,271.6,52.12,-99999.0,'1111122,1111122,1199999999' 
TABS,ioos:station:wmo:42050:1,2019-03-17T05:00:00Z,28.8425,-94.2433,-2.0,272.3,64.5,-99999.0,'1111122,1111122,1199999999' 
TABS,ioos:station:wmo:42050:1,2019-03-17T13:00:00Z,28.8425,-94.2433,-2.0,265.8,56.7,-99999.0,'1111122,1111122,1199999999' 
TABS,ioos:station:wmo:42050:1,2019-03-17T19:00:00Z,28.8425,-94.2433,-2.0,255.0,43.45,-99999.0,'1111122,1111122,1199999999' 
TABS,ioos:station:wmo:42050:1,2019-03-17T21:00:00Z,28.8425,-94.2433,-2.0,255.1,69.96,-99999.0,'1111122,1111122,1199999999' 
TABS,ioos:station:wmo:42050:1,2019-03-17T22:00:00Z,28.8425,-94.2433,-2.0,255.7,72.83,-99999.0,'1111122,1111122,1199999999' 
TABS,ioos:station:wmo:42050:1,2019-03-17T22:30:00Z,28.8425,-94.2433,-2.0,254.6,74.72,-99999.0,'1111122,1111122,1199999999' 
TABS,ioos:station:wmo:42050:1,2019-03-18T02:00:00Z,28.8425,-94.2433,-2.0,253.8,54.02,-99999.0,'1111122,1111122,1199999999' 
TABS,ioos:station:wmo:42050:1,2019-03-18T03:00:00Z,28.8425,-94.2433,-2.0,262.8,50.26,-99999.0,'1111122,1111122,1199999999' 
TABS,ioos:station:wmo:42050:1,2019-03-18T05:00:00Z,28.8425,-94.2433,-2.0,272.9,49.7,-99999.0,'1111122,1111122,1199999999' 
TABS,ioos:station:wmo:42050:1,2019-03-18T07:00:00Z,28.8425,-94.2433,-2.0,275.3,46.54,-99999.0,'1111122,1111122,1199999999' 
TABS,ioos:station:wmo:42050:1,2019-03-18T08:00:00Z,28.8425,-94.2433,-2.0,275.3,62.1,-99999.0,'1111122,1111122,1199999999' 
TABS,ioos:station:wmo:42050:1,2019-03-18T22:00:00Z,28.8425,-94.2433,-2.0,264.1,60.43,-99999.0,'1111122,1111122,1199999999' 
TABS,ioos:station:wmo:42050:1,2019-03-18T23:00:00Z,28.8425,-94.2433,-2.0,267.5,54.5,-99999.0,'1111122,1111122,1199999999' 
TABS,ioos:station:wmo:42050:1,2019-03-19T13:00:00Z,28.8425,-94.2433,-2.0,249.7,45.86,-99999.0,'1111122,1111122,1199999999' 
TABS,ioos:station:wmo:42050:1,2019-03-20T00:00:00Z,28.8425,-94.2433,-2.0,255.9,32.77,-99999.0,'1111122,1111122,1199999999' 
TABS,ioos:station:wmo:42050:1,2019-03-20T15:00:00Z,28.8425,-94.2433,-2.0,228.3,82.38,-99999.0,'1111122,1111122,1199999999' 
TABS,ioos:station:wmo:42050:1,2019-03-20T21:00:00Z,28.8425,-94.2433,-2.0,215.1,56.2,-99999.0,'1111122,1111122,1199999999' 
TABS,ioos:station:wmo:42050:1,2019-03-21T02:00:00Z,28.8425,-94.2433,-2.0,214.3,52.68,-99999.0,'1111122,1111122,1199999999' 
TABS,ioos:station:wmo:42050:1,2019-03-21T05:00:00Z,28.8425,-94.2433,-2.0,240.7,31.41,-99999.0,'1111122,1111122,1199999999' 
TABS,ioos:station:wmo:42050:1,2019-03-21T13:00:00Z,28.8425,-94.2433,-2.0,216.9,65.98,-99999.0,'1111122,1111122,1199999999' 
TABS,ioos:station:wmo:42050:1,2019-03-21T20:00:00Z,28.8425,-94.2433,-2.0,292.7,26.29,-99999.0,'1111122,1111122,1199999999' 
TABS,ioos:station:wmo:42050:1,2019-03-21T21:00:00Z,28.8425,-94.2433,-2.0,290.3,23.68,-99999.0,'1111122,1111122,1199999999' 